Location: Newark
(53.3503°N, 9.6158°W)
Time: 08:31:59
(UTC+00:00)

Envisat - Visible Passes

Search period start: 23 October 2019 00:00
Search period end: 02 November 2019 00:00
Orbit: 764 x 766 km, 98.1° (Epoch: 23 October)

Date Brightness Start Highest point End Pass type
(mag) Time Alt. Az. Time Alt. Az. Time Alt. Az.
23 Oct 6.4 06:03:59 10° ENE 06:06:08 13° E 06:08:17 10° ESE visible
23 Oct 4.0 19:02:07 10° S 19:07:03 49° W 19:12:00 10° NNW visible
24 Oct 3.0 18:25:05 10° SSE 18:30:10 88° ENE 18:35:19 10° NNW visible
24 Oct 5.9 20:06:41 10° SW 20:09:56 17° W 20:13:10 10° NW visible
25 Oct 6.0 06:28:18 10° NE 06:32:02 20° E 06:35:44 10° SE visible
25 Oct 3.3 17:48:39 10° SE 17:53:30 48° ENE 17:58:23 10° N visible
25 Oct 4.9 19:28:13 10° SSW 19:32:43 31° W 19:37:16 10° NNW visible
26 Oct 6.7 05:54:31 10° E 05:54:41 10° E 05:54:51 10° E visible
26 Oct 3.6 18:50:43 10° S 18:55:44 60° W 19:00:47 10° NNW visible
26 Oct 6.3 20:35:20 10° W 20:35:52 10° W 20:36:24 10° WNW visible
27 Oct 2.9 18:13:51 10° SSE 18:18:55 74° ENE 18:24:01 10° NNW visible
27 Oct 5.6 19:54:47 10° SW 19:58:30 20° W 20:02:15 10° NW visible
28 Oct 6.1 06:17:24 10° NE 06:20:37 17° E 06:23:49 10° SE visible
28 Oct 4.5 19:16:40 10° SSW 19:21:22 38° W 19:26:07 10° NNW visible
29 Oct 3.3 18:39:22 10° S 18:44:26 72° WSW 18:49:32 10° NNW visible
29 Oct 6.1 20:22:11 10° WSW 20:24:24 13° W 20:26:37 10° WNW visible
30 Oct 5.6 06:42:12 10° NE 06:46:26 26° E 06:50:39 10° SSE visible
30 Oct 3.0 18:02:40 10° SSE 18:07:40 61° ENE 18:12:42 10° N visible
30 Oct 5.3 19:43:00 10° SW 19:47:07 24° W 19:51:15 10° NW visible
31 Oct 6.2 06:06:39 10° NE 06:09:10 14° E 06:11:41 10° ESE visible
31 Oct 4.1 19:05:10 10° S 19:10:02 46° W 19:14:56 10° NNW visible
01 Nov 3.0 18:28:03 10° SSE 18:33:09 86° WSW 18:38:16 10° NNW visible
01 Nov 5.9 20:09:58 10° WSW 20:12:57 16° W 20:15:58 10° NW visible
